TimeEDT,TemperatureF,Dew PointF,Humidity,Sea Level PressureIn,VisibilityMPH,Wind Direction,Wind SpeedMPH,Gust SpeedMPH,PrecipitationIn,Events,Conditions,WindDirDegrees,DateUTC
12:15 AM,54.1,51.6,91,30.04,7.0,Calm,Calm,-,0.01,Rain,Heavy Rain,0,2012-10-07 04:15:00
12:35 AM,53.4,50.9,91,30.03,10.0,Calm,Calm,-,0.02,Rain,Light Rain,0,2012-10-07 04:35:00
12:55 AM,52.9,50.5,92,30.02,10.0,Calm,Calm,-,0.02,,Overcast,0,2012-10-07 04:55:00
1:15 AM,52.9,50.5,92,30.03,10.0,Calm,Calm,-,0.01,Rain,Light Rain,0,2012-10-07 05:15:00
1:35 AM,53.1,50.9,92,30.03,10.0,Calm,Calm,-,0.01,,Light Drizzle,0,2012-10-07 05:35:00
1:55 AM,53.2,51.3,93,30.03,10.0,Calm,Calm,-,0.01,,Overcast,0,2012-10-07 05:55:00
2:15 AM,53.1,51.6,95,30.03,10.0,Calm,Calm,-,N/A,,Overcast,0,2012-10-07 06:15:00
2:35 AM,53.2,51.8,95,30.04,10.0,Calm,Calm,-,N/A,,Overcast,0,2012-10-07 06:35:00
3:15 AM,53.4,52.2,95,30.03,10.0,Calm,Calm,-,N/A,,Overcast,0,2012-10-07 07:15:00
3:35 AM,53.6,52.2,95,30.03,10.0,Calm,Calm,-,N/A,,Overcast,0,2012-10-07 07:35:00
3:55 AM,53.6,52.2,95,30.03,10.0,Calm,Calm,-,N/A,,Overcast,0,2012-10-07 07:55:00
4:15 AM,53.4,52.0,95,30.04,10.0,Calm,Calm,-,N/A,,Overcast,0,2012-10-07 08:15:00
4:35 AM,53.4,52.0,95,30.05,10.0,Calm,Calm,-,N/A,,Overcast,0,2012-10-07 08:35:00
4:55 AM,53.4,51.6,94,30.03,10.0,NE,3.5,-,N/A,,Overcast,40,2012-10-07 08:55:00
5:15 AM,53.2,51.1,92,30.03,10.0,NE,5.8,-,N/A,,Overcast,40,2012-10-07 09:15:00
5:35 AM,52.9,50.9,93,30.03,10.0,ENE,4.6,-,N/A,Rain,Light Rain,60,2012-10-07 09:35:00
5:55 AM,51.6,48.7,90,30.04,10.0,NE,3.5,-,N/A,,Light Drizzle,50,2012-10-07 09:55:00
6:15 AM,50.9,48.2,90,30.04,10.0,Calm,Calm,-,N/A,,Overcast,0,2012-10-07 10:15:00
6:35 AM,51.1,48.9,92,30.04,10.0,NNE,3.5,-,N/A,,Overcast,30,2012-10-07 10:35:00
6:55 AM,50.9,48.9,93,30.06,10.0,NNE,5.8,-,N/A,,Overcast,30,2012-10-07 10:55:00
7:15 AM,50.0,47.5,91,30.09,10.0,NNW,5.8,-,N/A,,Overcast,340,2012-10-07 11:15:00
7:55 AM,48.6,46.8,93,30.09,7.0,NE,3.5,-,0.24,Rain,Heavy Rain,40,2012-10-07 11:55:00
8:15 AM,48.0,46.6,95,30.08,4.0,Calm,Calm,-,0.06,Rain,Heavy Rain,0,2012-10-07 12:15:00
8:35 AM,47.7,46.4,95,30.09,7.0,Calm,Calm,-,0.10,Rain,Light Rain,0,2012-10-07 12:35:00
8:55 AM,47.7,46.6,96,30.09,10.0,Calm,Calm,-,0.10,,Overcast,0,2012-10-07 12:55:00
9:15 AM,47.8,46.8,96,30.11,10.0,NNE,3.5,-,N/A,,Mostly Cloudy,30,2012-10-07 13:15:00
9:35 AM,48.2,47.1,96,30.11,10.0,North,3.5,-,N/A,,Overcast,10,2012-10-07 13:35:00
9:55 AM,48.6,47.5,96,30.11,10.0,NNE,5.8,-,N/A,Rain,Light Rain,30,2012-10-07 13:55:00
10:15 AM,49.1,47.7,95,30.11,10.0,Calm,Calm,-,N/A,,Overcast,0,2012-10-07 14:15:00
10:35 AM,49.6,48.0,94,30.12,10.0,NNE,4.6,-,N/A,,Overcast,30,2012-10-07 14:35:00
10:55 AM,50.0,47.7,92,30.11,10.0,Calm,Calm,-,N/A,,Overcast,0,2012-10-07 14:55:00
11:15 AM,50.2,47.5,90,30.10,10.0,NE,3.5,-,N/A,,Overcast,50,2012-10-07 15:15:00
11:35 AM,50.5,47.7,90,30.11,10.0,NNE,3.5,-,N/A,,Overcast,30,2012-10-07 15:35:00
11:55 AM,50.9,48.0,90,30.10,10.0,NE,4.6,-,N/A,,Overcast,40,2012-10-07 15:55:00
12:15 PM,50.9,47.7,89,30.10,10.0,NNE,4.6,-,N/A,,Overcast,30,2012-10-07 16:15:00
12:35 PM,50.9,47.7,89,30.10,10.0,NNE,4.6,-,N/A,,Overcast,20,2012-10-07 16:35:00
12:55 PM,50.9,47.5,88,30.08,10.0,NE,3.5,-,N/A,,Overcast,50,2012-10-07 16:55:00
1:15 PM,51.3,47.7,87,30.08,10.0,NNE,3.5,-,N/A,,Overcast,30,2012-10-07 17:15:00
1:35 PM,51.6,47.8,87,30.07,10.0,Calm,Calm,-,N/A,,Overcast,0,2012-10-07 17:35:00
1:55 PM,51.8,48.0,87,30.06,10.0,NE,4.6,-,N/A,,Overcast,40,2012-10-07 17:55:00
2:15 PM,51.8,47.8,86,30.04,10.0,ENE,4.6,-,N/A,,Overcast,60,2012-10-07 18:15:00
2:35 PM,51.8,47.7,86,30.05,10.0,Calm,Calm,-,N/A,,Overcast,0,2012-10-07 18:35:00
2:55 PM,52.2,48.0,86,30.04,10.0,ENE,3.5,-,N/A,,Overcast,60,2012-10-07 18:55:00
3:15 PM,52.5,47.8,84,30.06,10.0,Calm,Calm,-,N/A,,Overcast,0,2012-10-07 19:15:00
3:35 PM,52.7,48.0,84,30.06,10.0,Calm,Calm,-,N/A,,Overcast,0,2012-10-07 19:35:00
3:55 PM,52.5,48.0,85,30.08,10.0,Calm,Calm,-,N/A,,Overcast,0,2012-10-07 19:55:00
4:15 PM,52.7,48.4,85,30.08,10.0,NNW,3.5,-,N/A,,Overcast,330,2012-10-07 20:15:00
4:35 PM,51.8,48.6,89,30.09,2.5,Calm,Calm,-,N/A,,Overcast,0,2012-10-07 20:35:00
4:55 PM,50.9,49.3,94,30.10,2.0,NNW,3.5,-,N/A,Rain,Rain,340,2012-10-07 20:55:00
5:15 PM,50.7,49.3,95,30.10,4.0,Calm,Calm,-,N/A,,Light Drizzle,0,2012-10-07 21:15:00
5:35 PM,50.5,49.3,95,30.11,10.0,Calm,Calm,-,N/A,,Overcast,0,2012-10-07 21:35:00
5:55 PM,50.4,49.1,95,30.10,10.0,Calm,Calm,-,N/A,,Overcast,0,2012-10-07 21:55:00
6:15 PM,50.4,49.1,95,30.11,10.0,Calm,Calm,-,N/A,,Overcast,0,2012-10-07 22:15:00
6:35 PM,50.4,49.1,95,30.11,10.0,Calm,Calm,-,N/A,,Overcast,0,2012-10-07 22:35:00
6:55 PM,50.4,49.1,95,30.11,10.0,Calm,Calm,-,N/A,,Overcast,0,2012-10-07 22:55:00
7:15 PM,50.5,49.1,95,30.12,10.0,Calm,Calm,-,N/A,,Overcast,0,2012-10-07 23:15:00
7:35 PM,50.4,49.1,95,30.12,10.0,Calm,Calm,-,N/A,,Overcast,0,2012-10-07 23:35:00
7:55 PM,50.2,49.1,96,30.13,10.0,Calm,Calm,-,N/A,,Overcast,0,2012-10-07 23:55:00
8:15 PM,50.0,49.1,97,30.14,10.0,Calm,Calm,-,N/A,,Overcast,0,2012-10-08 00:15:00
8:35 PM,49.5,48.6,97,30.14,5.0,Calm,Calm,-,N/A,,Scattered Clouds,0,2012-10-08 00:35:00
8:55 PM,47.8,47.1,97,30.15,4.0,Calm,Calm,-,N/A,,Clear,0,2012-10-08 00:55:00
9:15 PM,46.4,45.9,98,30.16,4.0,Calm,Calm,-,N/A,,Clear,0,2012-10-08 01:15:00
9:35 PM,45.1,44.8,99,30.16,1.0,Calm,Calm,-,N/A,,Mist,0,2012-10-08 01:35:00
9:55 PM,44.6,44.2,99,30.16,1.2,Calm,Calm,-,N/A,,Mist,0,2012-10-08 01:55:00
10:15 PM,44.2,44.1,99,30.17,1.2,Calm,Calm,-,N/A,,Scattered Clouds,0,2012-10-08 02:15:00
10:35 PM,44.6,44.6,100,30.18,5.0,Calm,Calm,-,N/A,,Mostly Cloudy,0,2012-10-08 02:35:00
10:55 PM,44.4,44.4,100,30.18,4.0,Calm,Calm,-,N/A,,Scattered Clouds,0,2012-10-08 02:55:00
11:15 PM,43.9,43.7,99,30.18,2.5,Calm,Calm,-,N/A,,Scattered Clouds,0,2012-10-08 03:15:00
11:35 PM,43.7,43.7,100,30.18,2.0,Calm,Calm,-,N/A,,Clear,0,2012-10-08 03:35:00
11:55 PM,45.1,45.1,100,30.17,10.0,Calm,Calm,-,N/A,,Clear,0,2012-10-08 03:55:00